FW6326 Weather Reports


time (UTC)temp
C
wind
direction
speed
KPH
gust
KPH
rain 1hr
cm
rain 24hr
cm
rain mn
cm
humidity
%
barometer
mb
20260504204554 8 158 32.2 62.8 0.00 0.89 0.00 72 1004.3
20260504203053 8 229 33.8 57.9 0.00 0.89 0.00 71 1004.0
20260504201555 7 233 35.4 56.3 0.00 0.89 0.00 71 1003.7
20260504200056 7 25 32.2 64.4 0.00 0.89 0.00 73 1003.5
20260504194602 8 293 35.4 61.2 0.00 1.27 0.00 72 1003.3
20260504193055 8 215 35.4 53.1 0.00 1.27 0.00 69 1003.3
20260504191615 10 239 22.5 41.8 0.00 1.27 0.00 62 1002.9
20260504190058 11 214 33.8 54.7 0.00 1.27 0.00 57 1002.9
20260504184603 13 275 29.0 57.9 0.00 1.52 0.00 39 1002.6
20260504183100 12 244 29.0 51.5 0.00 1.52 0.00 40 1002.6
20260504181555 12 264 30.6 51.5 0.00 1.52 0.00 43 1002.6
20260504180054 12 292 25.7 49.9 0.00 1.52 0.00 47 1002.5
20260504174553 12 281 22.5 59.5 0.00 1.57 0.00 52 1002.2
20260504173055 12 175 25.7 45.1 0.00 1.57 0.00 53 1002.0
20260504171556 11 230 25.7 51.5 0.00 1.57 0.00 52 1001.8
20260504170107 12 312 27.4 46.7 0.00 1.57 0.00 54 1001.7
20260504140104 6 232 27.4 48.3 0.00 1.57 0.00 84 1000.6
20260504081555 2 283 29.0 49.9 0.00 1.57 0.00 91 990.3
20260504060105 2 271 22.5 53.1 0.00 1.57 0.00 92 985.1
20260504050123 2 289 24.1 48.3 0.00 1.57 0.00 92 983.1
20260504044555 2 270 20.9 49.9 0.00 1.57 0.00 92 982.5
20260504043101 2 302 20.9 41.8 0.00 1.57 0.00 92 982.0
20260504041559 3 276 19.3 38.6 0.00 1.57 0.00 92 981.4
20260504040113 3 250 19.3 40.2 0.00 1.57 0.00 92 981.0
20260504034611 3 227 14.5 32.2 0.00 1.57 0.00 92 980.1
20260504033059 3 260 16.1 32.2 0.00 1.57 0.00 93 979.4
20260504031611 3 260 17.7 32.2 0.00 1.57 0.00 93 978.4
20260504030112 3 296 16.1 37.0 0.03 1.57 0.00 93 977.6
20260504024555 3 298 16.1 29.0 0.05 1.57 1.57 94 976.7
20260504023055 3 281 14.5 24.1 0.05 1.55 1.55 94 976.3
20260504021610 3 282 12.9 22.5 0.08 1.55 1.55 94 975.2
20260504020057 3 343 8.0 16.1 0.08 1.52 1.52 94 974.6
20260504014600 3 325 8.0 17.7 0.05 1.50 1.50 94 974.4
20260504013103 3 20 8.0 20.9 0.03 1.50 1.50 93 974.1
20260504011600 3 5 12.9 27.4 0.00 1.47 1.47 93 974.5
20260504010059 3 83 17.7 29.0 0.00 1.45 1.45 93 975.1
20260504004559 3 100 12.9 33.8 0.00 1.45 1.45 93 975.8
20260504003100 3 95 16.1 25.7 0.00 1.45 1.45 93 976.6
20260504001608 4 99 12.9 24.1 0.05 1.45 1.45 93 977.9
20260504000138 4 95 14.5 29.0 0.05 1.42 1.42 94 978.5
20260503234604 5 90 20.9 38.6 0.08 1.42 1.42 94 979.0
20260503233103 4 100 17.7 51.5 0.10 1.42 1.42 94 979.6
20260503231559 3 86 25.7 54.7 0.08 1.40 1.40 93 980.6
20260503230059 3 86 32.2 66.0 0.08 1.37 1.37 93 981.2
20260503224554 4 56 33.8 69.2 0.08 1.32 1.32 93 981.8
20260503223059 3 66 32.2 66.0 0.08 1.30 1.30 93 982.8
20260503221557 3 59 37.0 70.8 0.13 1.30 1.30 93 983.8
20260503220059 3 74 33.8 62.8 0.18 1.27 1.27 93 985.0
20260503214555 3 48 35.4 62.8 0.23 1.24 1.24 93 985.7
20260503213055 3 102 35.4 59.5 0.25 1.22 1.22 93 986.9
20260503211556 2 70 35.4 56.3 0.25 1.14 1.14 93 987.6
20260503210054 2 37 25.7 62.8 0.36 1.07 1.07 93 988.9